Index of /20260506/WXO-DD/model_gdps/15km/12/183
Name Last modified Size Description
Parent Directory -
20260506T12Z_MSC_GDPS_AirTemp_AGL-120m_LatLon0.15_PT183H.grib2 2026-05-06 19:00 909K
20260506T12Z_MSC_GDPS_AirTemp_AGL-2m_LatLon0.15_PT183H.grib2 2026-05-06 19:00 1.0M
20260506T12Z_MSC_GDPS_AirTemp_AGL-40m_LatLon0.15_PT183H.grib2 2026-05-06 19:00 930K
20260506T12Z_MSC_GDPS_AirTemp_AGL-80m_LatLon0.15_PT183H.grib2 2026-05-06 19:00 918K
20260506T12Z_MSC_GDPS_AirTemp_IsbL-0001_LatLon0.15_PT183H.grib2 2026-05-06 19:00 670K
20260506T12Z_MSC_GDPS_AirTemp_IsbL-0005_LatLon0.15_PT183H.grib2 2026-05-06 19:00 702K
20260506T12Z_MSC_GDPS_AirTemp_IsbL-0500_LatLon0.15_PT183H.grib2 2026-05-06 19:00 1.0M
20260506T12Z_MSC_GDPS_AirTemp_IsbL-0700_LatLon0.15_PT183H.grib2 2026-05-06 19:00 945K
20260506T12Z_MSC_GDPS_AirTemp_IsbL-0850_LatLon0.15_PT183H.grib2 2026-05-06 19:00 1.1M
20260506T12Z_MSC_GDPS_AirTemp_IsbL-0925_LatLon0.15_PT183H.grib2 2026-05-06 19:00 1.1M
20260506T12Z_MSC_GDPS_AirTemp_IsbL-1000_LatLon0.15_PT183H.grib2 2026-05-06 19:00 1.1M
20260506T12Z_MSC_GDPS_Albedo_Sfc_LatLon0.15_PT183H.grib2 2026-05-06 19:00 244K
20260506T12Z_MSC_GDPS_ConvectivePrecip-Accum_Sfc_LatLon0.15_PT183H.grib2 2026-05-06 19:00 3.8M
20260506T12Z_MSC_GDPS_DewPointDepression_AGL-2m_LatLon0.15_PT183H.grib2 2026-05-06 19:00 763K
20260506T12Z_MSC_GDPS_DewPointDepression_IsbL-0500_LatLon0.15_PT183H.grib2 2026-05-06 19:00 1.0M
20260506T12Z_MSC_GDPS_DewPointDepression_IsbL-0700_LatLon0.15_PT183H.grib2 2026-05-06 19:00 1.1M
20260506T12Z_MSC_GDPS_DewPointDepression_IsbL-0850_LatLon0.15_PT183H.grib2 2026-05-06 19:00 1.1M
20260506T12Z_MSC_GDPS_DewPointDepression_IsbL-0925_LatLon0.15_PT183H.grib2 2026-05-06 19:00 1.0M
20260506T12Z_MSC_GDPS_DewPointDepression_IsbL-1000_LatLon0.15_PT183H.grib2 2026-05-06 19:00 961K
20260506T12Z_MSC_GDPS_DewPoint_AGL-2m_LatLon0.15_PT183H.grib2 2026-05-06 19:00 602K
20260506T12Z_MSC_GDPS_DownwardLongwaveRadiationFlux-Accum_Sfc_LatLon0.15_PT183H.grib2 2026-05-06 19:00 655K
20260506T12Z_MSC_GDPS_DownwardShortwaveRadiationFlux-Accum_Sfc_LatLon0.15_PT183H.grib2 2026-05-06 19:00 839K
20260506T12Z_MSC_GDPS_FreezingRain-Accum_Sfc_LatLon0.15_PT183H.grib2 2026-05-06 19:00 486K
20260506T12Z_MSC_GDPS_GeopotentialHeight_IsbL-0001_LatLon0.15_PT183H.grib2 2026-05-06 19:00 457K
20260506T12Z_MSC_GDPS_GeopotentialHeight_IsbL-0005_LatLon0.15_PT183H.grib2 2026-05-06 19:00 357K
20260506T12Z_MSC_GDPS_GeopotentialHeight_IsbL-0500_LatLon0.15_PT183H.grib2 2026-05-06 19:00 531K
20260506T12Z_MSC_GDPS_GeopotentialHeight_IsbL-0700_LatLon0.15_PT183H.grib2 2026-05-06 19:00 684K
20260506T12Z_MSC_GDPS_GeopotentialHeight_IsbL-0850_LatLon0.15_PT183H.grib2 2026-05-06 19:00 709K
20260506T12Z_MSC_GDPS_GeopotentialHeight_IsbL-0925_LatLon0.15_PT183H.grib2 2026-05-06 19:00 734K
20260506T12Z_MSC_GDPS_GeopotentialHeight_IsbL-1000_LatLon0.15_PT183H.grib2 2026-05-06 19:00 788K
20260506T12Z_MSC_GDPS_IcePellets-Accum_Sfc_LatLon0.15_PT183H.grib2 2026-05-06 19:00 272K
20260506T12Z_MSC_GDPS_LatentHeatNetFlux_Sfc_LatLon0.15_PT183H.grib2 2026-05-06 19:00 684K
20260506T12Z_MSC_GDPS_NetLongwaveRadiationFlux-Accum_Sfc_LatLon0.15_PT183H.grib2 2026-05-06 19:00 877K
20260506T12Z_MSC_GDPS_NetShortwaveRadiationFlux-Accum_Sfc_LatLon0.15_PT183H.grib2 2026-05-06 19:00 836K
20260506T12Z_MSC_GDPS_O3MixingRatio_Sfc_LatLon0.15_PT183H.grib2 2026-05-06 18:22 1.9M
20260506T12Z_MSC_GDPS_O3_EAtm_LatLon0.15_PT183H.grib2 2026-05-06 18:22 2.5M
20260506T12Z_MSC_GDPS_PlanetaryBoundaryLayerHeight_Sfc_LatLon0.15_PT183H.grib2 2026-05-06 19:00 2.4M
20260506T12Z_MSC_GDPS_Precip-Accum_Sfc_LatLon0.15_PT183H.grib2 2026-05-06 19:00 5.0M
20260506T12Z_MSC_GDPS_PrecipRate_Sfc_LatLon0.15_PT183H.grib2 2026-05-06 19:00 3.0M
20260506T12Z_MSC_GDPS_Pressure_MSL_LatLon0.15_PT183H.grib2 2026-05-06 19:00 822K
20260506T12Z_MSC_GDPS_Pressure_Sfc_LatLon0.15_PT183H.grib2 2026-05-06 19:00 1.1M
20260506T12Z_MSC_GDPS_RadiativeTemp_Sfc_LatLon0.15_PT183H.grib2 2026-05-06 19:00 667K
20260506T12Z_MSC_GDPS_Rain-Accum_Sfc_LatLon0.15_PT183H.grib2 2026-05-06 19:00 4.0M
20260506T12Z_MSC_GDPS_RelativeHumidity_AGL-2m_LatLon0.15_PT183H.grib2 2026-05-06 19:00 1.0M
20260506T12Z_MSC_GDPS_Runoff-Accum_Sfc_LatLon0.15_PT183H.grib2 2026-05-06 19:00 125K
20260506T12Z_MSC_GDPS_SensibleHeatNetFlux_Sfc_LatLon0.15_PT183H.grib2 2026-05-06 19:00 463K
20260506T12Z_MSC_GDPS_Snow-Accum_Sfc_LatLon0.15_PT183H.grib2 2026-05-06 19:00 2.3M
20260506T12Z_MSC_GDPS_SnowDepth_Sfc_LatLon0.15_PT183H.grib2 2026-05-06 19:00 1.7M
20260506T12Z_MSC_GDPS_SoilTemp_DBS-0to10cm_LatLon0.15_PT183H.grib2 2026-05-06 19:00 513K
20260506T12Z_MSC_GDPS_SoilTemp_Sfc_LatLon0.15_PT183H.grib2 2026-05-06 19:00 586K
20260506T12Z_MSC_GDPS_SoilVolumetricWaterContent_DBS-0to10cm_LatLon0.15_PT183H.grib2 2026-05-06 19:00 605K
20260506T12Z_MSC_GDPS_SoilVolumetricWaterContent_DBS-0to1cm_LatLon0.15_PT183H.grib2 2026-05-06 19:00 650K
20260506T12Z_MSC_GDPS_SpecificHumidity_AGL-120m_LatLon0.15_PT183H.grib2 2026-05-06 19:00 1.1M
20260506T12Z_MSC_GDPS_SpecificHumidity_AGL-2m_LatLon0.15_PT183H.grib2 2026-05-06 19:00 1.2M
20260506T12Z_MSC_GDPS_SpecificHumidity_AGL-40m_LatLon0.15_PT183H.grib2 2026-05-06 19:00 1.1M
20260506T12Z_MSC_GDPS_SpecificHumidity_AGL-80m_LatLon0.15_PT183H.grib2 2026-05-06 19:00 1.1M
20260506T12Z_MSC_GDPS_SpecificHumidity_IsbL-0001_LatLon0.15_PT183H.grib2 2026-05-06 19:00 1.2M
20260506T12Z_MSC_GDPS_SpecificHumidity_IsbL-0005_LatLon0.15_PT183H.grib2 2026-05-06 19:00 1.0M
20260506T12Z_MSC_GDPS_SpecificHumidity_IsbL-0500_LatLon0.15_PT183H.grib2 2026-05-06 19:00 1.5M
20260506T12Z_MSC_GDPS_SpecificHumidity_IsbL-0700_LatLon0.15_PT183H.grib2 2026-05-06 19:00 1.7M
20260506T12Z_MSC_GDPS_SpecificHumidity_IsbL-0850_LatLon0.15_PT183H.grib2 2026-05-06 19:00 2.0M
20260506T12Z_MSC_GDPS_SpecificHumidity_IsbL-0925_LatLon0.15_PT183H.grib2 2026-05-06 19:00 1.9M
20260506T12Z_MSC_GDPS_SpecificHumidity_IsbL-1000_LatLon0.15_PT183H.grib2 2026-05-06 19:00 1.5M
20260506T12Z_MSC_GDPS_SpecificHumidity_Sfc_LatLon0.15_PT183H.grib2 2026-05-06 19:00 653K
20260506T12Z_MSC_GDPS_Thickness_IsbL-0850to0700_LatLon0.15_PT183H.grib2 2026-05-06 19:00 465K
20260506T12Z_MSC_GDPS_Thickness_IsbL-1000to0500_LatLon0.15_PT183H.grib2 2026-05-06 19:00 371K
20260506T12Z_MSC_GDPS_Thickness_IsbL-1000to0850_LatLon0.15_PT183H.grib2 2026-05-06 19:00 486K
20260506T12Z_MSC_GDPS_TotalCloudCover_Sfc_LatLon0.15_PT183H.grib2 2026-05-06 19:00 845K
20260506T12Z_MSC_GDPS_UVIndex-ClearSky_Sfc_LatLon0.15_PT183H.grib2 2026-05-06 18:22 1.0M
20260506T12Z_MSC_GDPS_UVIndex_Sfc_LatLon0.15_PT183H.grib2 2026-05-06 18:22 1.5M
20260506T12Z_MSC_GDPS_UpwardLongwaveRadiationFlux_NTAtm_LatLon0.15_PT183H.grib2 2026-05-06 19:00 837K
20260506T12Z_MSC_GDPS_VerticalVelocity_IsbL-0500_LatLon0.15_PT183H.grib2 2026-05-06 19:00 1.0M
20260506T12Z_MSC_GDPS_VerticalVelocity_IsbL-0700_LatLon0.15_PT183H.grib2 2026-05-06 19:00 1.4M
20260506T12Z_MSC_GDPS_VerticalVelocity_IsbL-0850_LatLon0.15_PT183H.grib2 2026-05-06 19:00 1.3M
20260506T12Z_MSC_GDPS_WindDir_AGL-10m_LatLon0.15_PT183H.grib2 2026-05-06 19:00 1.3M
20260506T12Z_MSC_GDPS_WindDir_AGL-120m_LatLon0.15_PT183H.grib2 2026-05-06 19:00 1.3M
20260506T12Z_MSC_GDPS_WindDir_AGL-40m_LatLon0.15_PT183H.grib2 2026-05-06 19:00 1.4M
20260506T12Z_MSC_GDPS_WindDir_AGL-80m_LatLon0.15_PT183H.grib2 2026-05-06 19:00 1.4M
20260506T12Z_MSC_GDPS_WindDir_IsbL-0001_LatLon0.15_PT183H.grib2 2026-05-06 19:00 637K
20260506T12Z_MSC_GDPS_WindDir_IsbL-0005_LatLon0.15_PT183H.grib2 2026-05-06 19:00 787K
20260506T12Z_MSC_GDPS_WindDir_IsbL-0500_LatLon0.15_PT183H.grib2 2026-05-06 19:00 1.4M
20260506T12Z_MSC_GDPS_WindDir_IsbL-0700_LatLon0.15_PT183H.grib2 2026-05-06 19:00 1.6M
20260506T12Z_MSC_GDPS_WindDir_IsbL-0850_LatLon0.15_PT183H.grib2 2026-05-06 19:00 1.9M
20260506T12Z_MSC_GDPS_WindDir_IsbL-0925_LatLon0.15_PT183H.grib2 2026-05-06 19:00 2.0M
20260506T12Z_MSC_GDPS_WindDir_IsbL-1000_LatLon0.15_PT183H.grib2 2026-05-06 19:00 2.0M
20260506T12Z_MSC_GDPS_WindGust-Max_AGL-10m_LatLon0.15_PT183H.grib2 2026-05-06 19:00 2.2M
20260506T12Z_MSC_GDPS_WindGust-Min_AGL-10m_LatLon0.15_PT183H.grib2 2026-05-06 19:00 2.1M
20260506T12Z_MSC_GDPS_WindGust_AGL-10m_LatLon0.15_PT183H.grib2 2026-05-06 19:00 2.1M
20260506T12Z_MSC_GDPS_WindSpeed_AGL-10m_LatLon0.15_PT183H.grib2 2026-05-06 19:00 1.1M
20260506T12Z_MSC_GDPS_WindSpeed_AGL-120m_LatLon0.15_PT183H.grib2 2026-05-06 19:00 1.2M
20260506T12Z_MSC_GDPS_WindSpeed_AGL-40m_LatLon0.15_PT183H.grib2 2026-05-06 19:00 1.2M
20260506T12Z_MSC_GDPS_WindSpeed_AGL-80m_LatLon0.15_PT183H.grib2 2026-05-06 19:00 1.2M
20260506T12Z_MSC_GDPS_WindSpeed_IsbL-0001_LatLon0.15_PT183H.grib2 2026-05-06 19:00 509K
20260506T12Z_MSC_GDPS_WindSpeed_IsbL-0005_LatLon0.15_PT183H.grib2 2026-05-06 19:00 698K
20260506T12Z_MSC_GDPS_WindSpeed_IsbL-0500_LatLon0.15_PT183H.grib2 2026-05-06 19:00 1.1M
20260506T12Z_MSC_GDPS_WindSpeed_IsbL-0700_LatLon0.15_PT183H.grib2 2026-05-06 19:00 1.5M
20260506T12Z_MSC_GDPS_WindSpeed_IsbL-0850_LatLon0.15_PT183H.grib2 2026-05-06 19:00 1.7M
20260506T12Z_MSC_GDPS_WindSpeed_IsbL-0925_LatLon0.15_PT183H.grib2 2026-05-06 19:00 1.8M
20260506T12Z_MSC_GDPS_WindSpeed_IsbL-1000_LatLon0.15_PT183H.grib2 2026-05-06 19:00 1.8M
20260506T12Z_MSC_GDPS_WindU_AGL-10m_LatLon0.15_PT183H.grib2 2026-05-06 19:00 1.3M
20260506T12Z_MSC_GDPS_WindU_AGL-120m_LatLon0.15_PT183H.grib2 2026-05-06 19:00 1.0M
20260506T12Z_MSC_GDPS_WindU_AGL-40m_LatLon0.15_PT183H.grib2 2026-05-06 19:00 957K
20260506T12Z_MSC_GDPS_WindU_AGL-80m_LatLon0.15_PT183H.grib2 2026-05-06 19:00 1.0M
20260506T12Z_MSC_GDPS_WindU_IsbL-0001_LatLon0.15_PT183H.grib2 2026-05-06 19:00 607K
20260506T12Z_MSC_GDPS_WindU_IsbL-0005_LatLon0.15_PT183H.grib2 2026-05-06 19:00 698K
20260506T12Z_MSC_GDPS_WindU_IsbL-0500_LatLon0.15_PT183H.grib2 2026-05-06 19:00 1.1M
20260506T12Z_MSC_GDPS_WindU_IsbL-0700_LatLon0.15_PT183H.grib2 2026-05-06 19:00 1.2M
20260506T12Z_MSC_GDPS_WindU_IsbL-0850_LatLon0.15_PT183H.grib2 2026-05-06 19:00 1.4M
20260506T12Z_MSC_GDPS_WindU_IsbL-0925_LatLon0.15_PT183H.grib2 2026-05-06 19:00 1.4M
20260506T12Z_MSC_GDPS_WindU_IsbL-1000_LatLon0.15_PT183H.grib2 2026-05-06 19:00 1.4M
20260506T12Z_MSC_GDPS_WindV_AGL-10m_LatLon0.15_PT183H.grib2 2026-05-06 19:00 1.3M
20260506T12Z_MSC_GDPS_WindV_AGL-120m_LatLon0.15_PT183H.grib2 2026-05-06 19:00 1.0M
20260506T12Z_MSC_GDPS_WindV_AGL-40m_LatLon0.15_PT183H.grib2 2026-05-06 19:00 958K
20260506T12Z_MSC_GDPS_WindV_AGL-80m_LatLon0.15_PT183H.grib2 2026-05-06 19:00 965K
20260506T12Z_MSC_GDPS_WindV_IsbL-0001_LatLon0.15_PT183H.grib2 2026-05-06 19:00 570K
20260506T12Z_MSC_GDPS_WindV_IsbL-0005_LatLon0.15_PT183H.grib2 2026-05-06 19:00 617K
20260506T12Z_MSC_GDPS_WindV_IsbL-0500_LatLon0.15_PT183H.grib2 2026-05-06 19:00 890K
20260506T12Z_MSC_GDPS_WindV_IsbL-0700_LatLon0.15_PT183H.grib2 2026-05-06 19:00 1.2M
20260506T12Z_MSC_GDPS_WindV_IsbL-0850_LatLon0.15_PT183H.grib2 2026-05-06 19:00 1.4M
20260506T12Z_MSC_GDPS_WindV_IsbL-0925_LatLon0.15_PT183H.grib2 2026-05-06 19:00 1.4M
20260506T12Z_MSC_GDPS_WindV_IsbL-1000_LatLon0.15_PT183H.grib2 2026-05-06 19:00 1.4M